Regional Weather Roundup
Issued by NWS

Home | Current Version | Previous Version | Graphics & Text | Print | Product List | Glossary On
Versions: 1 2 3 4 5 6 7 8 9 10 11 12 13 14 15 16 17 18 19 20 21 22 23 24 25 26 27 28
000
ASUS45 KSLC 262310
RWRUT

UTAH REGIONAL WEATHER ROUNDUP
NATIONAL WEATHER SERVICE SALT LAKE CITY UT
400 PM MST SUN FEB 26 2017

UTZ001>011-023>025-270000-

NORTHERN UTAH

CITY           SKY/WX    TMP DP  RH WIND       PRES   REMARKS
BRIGHAM CITY     N/A     38  17  42 SW9       29.79F WCI  31
HILL AFB       MOSUNNY   35  15  44 SW15      29.76F WCI  26
LOGAN          PTSUNNY   36  14  40 S10       29.78F WCI  28
OGDEN          MOSUNNY   36  15  42 S14       29.77F WCI  27
SALT LAKE CITY PTSUNNY   40  18  41 S16G25    29.78F WCI  31
TOOELE VALLEY  SUNNY     41  19  42 S17       29.77F
WENDOVER       MOSUNNY   43  21  42 E15       29.72F
HEBER CITY     SUNNY     28  10  47 CALM      29.76F
WEST JORDAN    SUNNY     40  27  60 S15G24    29.79S WCI  32

$$

UTZ011>015-024>027-270000-

CENTRAL/NORTHEAST UTAH

CITY           SKY/WX    TMP DP  RH WIND       PRES   REMARKS
PROVO AIRPORT  SUNNY     35  20  54 CALM      29.81F
MOAB/CANYONLAN PTSUNNY   46  10  23 W13       29.80F
DELTA          PTSUNNY   41  21  45 S16       29.76F
PRICE          CLOUDY    34  13  41 E5        29.79F WCI  30
ROOSEVELT      SUNNY     30  12  47 CALM      29.85F
VERNAL         SUNNY     27  11  51 E3        29.83F

$$

UTZ013>016-019>022-027-270000-

SOUTHERN UTAH

CITY           SKY/WX    TMP DP  RH WIND       PRES   REMARKS
BRYCE CANYON   PTSUNNY   32  12  43 SW18G25   29.80F WCI  20
CEDAR CITY     MOSUNNY   44  17  33 S20G28    29.77F
MILFORD        MOSUNNY   46  19  34 SW29      29.74F
ST GEORGE      CLEAR     54  22  28 W8        29.82F
HANKSVILLE     MOSUNNY   45  14  29 SE12G20   29.83F
BLANDING       PTSUNNY   41   8  25 SW14      29.92F

$$

REGIONAL REPORTS     COLORADO/ARIZONA

CITY           SKY/WX    TMP DP  RH WIND       PRES   REMARKS
CRAIG, CO      PTSUNNY   30   6  36 NW9       29.80F WCI  22
GRAND JUNCTION SUNNY     41   7  24 CALM      29.84F
RIFLE, CO      CLOUDY    38   4  24 W14       29.82F WCI  30
MONTROSE, CO   CLOUDY    40   5  23 NE5       29.86F
CORTEZ, CO     MOSUNNY   40  10  29 W7        29.87S
COLORADO CITY    N/A     52  21  30 W8        29.84F
PAGE, AZ       MOSUNNY   50  14  23 E6        29.82F
GRAND CANYON   CLOUDY    40  21  46 SW12      29.86S WCI  33
KINGMAN, AZ    MOSUNNY   54  12  18 S20       29.87S
FLAGSTAFF, AZ  CLOUDY    35  21  56 SW12G22   29.88S WCI  27

$$

REGIONAL REPORTS    NEVADA/IDAHO/WYOMING

CITY           SKY/WX    TMP DP  RH WIND       PRES   REMARKS
LAS VEGAS, NV  MOSUNNY   60  25  26 S13G26    29.80F
ELY, NY        CLOUDY    33  17  51 S13       29.73F WCI  24
ELKO, NV       MOSUNNY   40  12  32 SW16G24   29.67F WCI  31
POCATELLO, ID  CLOUDY    31  20  63 S20G29    29.73F WCI  19
BURLEY, ID     PTSUNNY   39  17  41 SW13      29.69F WCI  31
FORT BRIDGER,    N/A     25  10  53 E3        29.75S
EVANSTON, WY   SUNNY     22   8  55 SW16      29.71F WCI   8
ROCK SPRINGS,  SUNNY     21   5  50 SW10      29.76F WCI  10

$$




USA.gov is the U.S. government's official web portal to all federal, state and local government web resources and services.